| time (UTC) | temp F | wind direction | speed MPH | gust MPH | rain 1hr in | rain 24hr in | rain mn in | humidity % | barometer mb |
| 20260507010503 | 66 | 43 | 0.0 | 2.0 | 0.00 | 0.02 | 0.02 | 84 | 1010.2 |
| 20260507010003 | 66 | 34 | 0.0 | 2.0 | 0.00 | 0.02 | 0.02 | 83 | 1010.2 |
| 20260507005504 | 66 | 57 | 0.0 | 2.0 | 0.00 | 0.02 | 0.02 | 83 | 1010.1 |
| 20260507005003 | 66 | 7 | 0.0 | 1.0 | 0.00 | 0.02 | 0.02 | 82 | 1010.3 |
| 20260507004004 | 67 | 342 | 0.0 | 2.0 | 0.00 | 0.02 | 0.02 | 81 | 1010.2 |
| 20260507003503 | 67 | 330 | 0.0 | 2.0 | 0.00 | 0.02 | 0.02 | 81 | 1010.1 |
| 20260507003005 | 67 | 332 | 0.0 | 2.0 | 0.00 | 0.02 | 0.02 | 81 | 1009.9 |
| 20260507002503 | 67 | 322 | 0.0 | 3.0 | 0.00 | 0.02 | 0.02 | 80 | 1009.9 |
| 20260507001504 | 68 | 327 | 1.0 | 3.0 | 0.00 | 0.02 | 0.02 | 80 | 1009.9 |
| 20260507001004 | 68 | 321 | 1.0 | 2.0 | 0.00 | 0.02 | 0.02 | 79 | 1009.8 |
| 20260507000003 | 68 | 344 | 1.0 | 3.0 | 0.00 | 0.02 | 0.02 | 79 | 1009.7 |
| 20260506235503 | 69 | 351 | 1.0 | 3.0 | 0.00 | 0.02 | 0.02 | 78 | 1009.7 |
| 20260506235003 | 69 | 340 | 1.0 | 3.0 | 0.00 | 0.02 | 0.02 | 78 | 1009.7 |
| 20260506234004 | 69 | 352 | 1.0 | 3.0 | 0.00 | 0.02 | 0.02 | 77 | 1009.7 |
| 20260506233503 | 69 | 340 | 1.0 | 4.0 | 0.00 | 0.02 | 0.02 | 77 | 1009.6 |
| 20260506233004 | 69 | 335 | 1.0 | 4.0 | 0.00 | 0.02 | 0.02 | 76 | 1009.6 |
| 20260506232503 | 70 | 346 | 1.0 | 7.0 | 0.00 | 0.02 | 0.02 | 77 | 1009.6 |
| 20260506232003 | 70 | 336 | 2.0 | 7.0 | 0.00 | 0.02 | 0.02 | 76 | 1009.5 |
| 20260506231504 | 70 | 335 | 2.0 | 7.0 | 0.00 | 0.02 | 0.02 | 76 | 1009.5 |
| 20260506231003 | 70 | 337 | 2.0 | 6.0 | 0.00 | 0.02 | 0.02 | 76 | 1009.6 |
| 20260506230504 | 70 | 320 | 2.0 | 6.0 | 0.00 | 0.02 | 0.02 | 76 | 1009.7 |
| 20260506230004 | 70 | 309 | 2.0 | 5.0 | 0.00 | 0.02 | 0.02 | 75 | 1009.7 |
| 20260506225503 | 70 | 323 | 2.0 | 6.0 | 0.00 | 0.02 | 0.02 | 76 | 1009.7 |
| 20260506225003 | 70 | 336 | 3.0 | 8.0 | 0.00 | 0.02 | 0.02 | 75 | 1009.6 |
| 20260506224504 | 70 | 348 | 3.0 | 13.0 | 0.00 | 0.02 | 0.02 | 75 | 1009.7 |
| 20260506224003 | 70 | 329 | 4.0 | 14.0 | 0.00 | 0.02 | 0.02 | 75 | 1009.7 |
| 20260506223504 | 70 | 313 | 3.0 | 14.0 | 0.00 | 0.02 | 0.02 | 75 | 1009.7 |
| 20260506223003 | 70 | 332 | 3.0 | 8.0 | 0.00 | 0.02 | 0.02 | 75 | 1009.7 |
| 20260506222502 | 70 | 331 | 3.0 | 11.0 | 0.00 | 0.02 | 0.02 | 75 | 1009.6 |
| 20260506222002 | 70 | 317 | 3.0 | 11.0 | 0.00 | 0.02 | 0.02 | 75 | 1009.6 |
| 20260506221502 | 70 | 320 | 3.0 | 9.0 | 0.00 | 0.02 | 0.02 | 74 | 1009.7 |
| 20260506221003 | 70 | 317 | 4.0 | 10.0 | 0.00 | 0.02 | 0.02 | 75 | 1009.7 |
| 20260506220503 | 70 | 323 | 5.0 | 14.0 | 0.00 | 0.02 | 0.02 | 75 | 1009.8 |
| 20260506220002 | 70 | 335 | 4.0 | 14.0 | 0.00 | 0.02 | 0.02 | 75 | 1009.7 |
| 20260506215504 | 70 | 334 | 3.0 | 14.0 | 0.00 | 0.02 | 0.02 | 75 | 1009.6 |
| 20260506215002 | 70 | 332 | 3.0 | 8.0 | 0.00 | 0.02 | 0.02 | 75 | 1009.5 |
| 20260506214503 | 70 | 337 | 3.0 | 13.0 | 0.00 | 0.02 | 0.02 | 75 | 1009.6 |
| 20260506214002 | 70 | 337 | 4.0 | 13.0 | 0.00 | 0.02 | 0.02 | 75 | 1009.6 |
| 20260506213502 | 70 | 338 | 4.0 | 11.0 | 0.00 | 0.02 | 0.02 | 75 | 1009.6 |
| 20260506213002 | 70 | 331 | 4.0 | 11.0 | 0.00 | 0.02 | 0.02 | 75 | 1009.5 |
| 20260506212503 | 70 | 332 | 5.0 | 19.0 | 0.00 | 0.02 | 0.02 | 75 | 1009.5 |
| 20260506211002 | 70 | 339 | 4.0 | 13.0 | 0.00 | 0.02 | 0.02 | 75 | 1009.5 |
| 20260506210503 | 70 | 348 | 4.0 | 13.0 | 0.00 | 0.02 | 0.02 | 75 | 1009.5 |
| 20260506210002 | 70 | 348 | 5.0 | 18.0 | 0.00 | 0.02 | 0.02 | 75 | 1009.5 |
| 20260506205503 | 70 | 340 | 5.0 | 18.0 | 0.00 | 0.02 | 0.02 | 74 | 1009.5 |
| 20260506204004 | 70 | 334 | 5.0 | 15.0 | 0.00 | 0.02 | 0.02 | 74 | 1009.7 |
| 20260506203503 | 70 | 338 | 5.0 | 15.0 | 0.00 | 0.02 | 0.02 | 74 | 1009.6 |
| 20260506203002 | 70 | 338 | 4.0 | 10.0 | 0.00 | 0.02 | 0.02 | 74 | 1009.6 |
| 20260506202503 | 70 | 342 | 4.0 | 13.0 | 0.00 | 0.02 | 0.02 | 74 | 1009.4 |
| 20260506202004 | 70 | 348 | 5.0 | 13.0 | 0.00 | 0.02 | 0.02 | 74 | 1009.6 |
| 20260506201503 | 70 | 350 | 5.0 | 11.0 | 0.00 | 0.02 | 0.02 | 73 | 1009.6 |
| 20260506201003 | 70 | 339 | 5.0 | 14.0 | 0.00 | 0.02 | 0.02 | 74 | 1009.7 |
| 20260506200502 | 70 | 341 | 6.0 | 21.0 | 0.00 | 0.02 | 0.02 | 74 | 1009.7 |
| 20260506200003 | 71 | 348 | 6.0 | 21.0 | 0.00 | 0.02 | 0.02 | 74 | 1009.6 |
| 20260506195504 | 71 | 339 | 5.0 | 19.0 | 0.00 | 0.02 | 0.02 | 74 | 1009.9 |
| 20260506195003 | 71 | 342 | 4.0 | 11.0 | 0.00 | 0.02 | 0.02 | 74 | 1010.2 |
| 20260506194503 | 71 | 347 | 4.0 | 11.0 | 0.00 | 0.02 | 0.02 | 73 | 1010.2 |
| 20260506194003 | 71 | 344 | 4.0 | 10.0 | 0.00 | 0.02 | 0.02 | 73 | 1010.4 |
| 20260506193503 | 71 | 349 | 5.0 | 15.0 | 0.00 | 0.02 | 0.02 | 73 | 1010.5 |
| 20260506193003 | 71 | 346 | 6.0 | 15.0 | 0.00 | 0.02 | 0.02 | 73 | 1010.1 |
| 20260506192504 | 71 | 348 | 7.0 | 20.0 | 0.00 | 0.02 | 0.02 | 73 | 1009.9 |
| 20260506191502 | 71 | 355 | 6.0 | 18.0 | 0.00 | 0.02 | 0.02 | 74 | 1009.8 |
| 20260506191003 | 71 | 351 | 7.0 | 18.0 | 0.00 | 0.02 | 0.02 | 74 | 1010.0 |
| 20260506190502 | 70 | 346 | 5.0 | 19.0 | 0.00 | 0.02 | 0.02 | 75 | 1010.3 |
| 20260506190003 | 70 | 340 | 4.0 | 19.0 | 0.00 | 0.02 | 0.02 | 75 | 1010.5 |
| 20260506185503 | 70 | 337 | 5.0 | 14.0 | 0.00 | 0.02 | 0.02 | 76 | 1010.5 |
| 20260506185002 | 70 | 345 | 6.0 | 18.0 | 0.00 | 0.02 | 0.02 | 75 | 1010.7 |
| 20260506184503 | 70 | 350 | 7.0 | 18.0 | 0.00 | 0.02 | 0.02 | 75 | 1010.7 |
| 20260506184003 | 69 | 355 | 7.0 | 21.0 | 0.00 | 0.02 | 0.02 | 77 | 1010.6 |
| 20260506183502 | 69 | 355 | 7.0 | 21.0 | 0.00 | 0.02 | 0.02 | 77 | 1010.6 |
| 20260506183002 | 69 | 350 | 6.0 | 18.0 | 0.00 | 0.02 | 0.02 | 79 | 1010.7 |
| 20260506182502 | 69 | 348 | 6.0 | 20.0 | 0.00 | 0.02 | 0.02 | 79 | 1010.6 |
| 20260506182002 | 68 | 351 | 7.0 | 20.0 | 0.00 | 0.02 | 0.02 | 79 | 1010.4 |
| 20260506181502 | 68 | 351 | 6.0 | 19.0 | 0.00 | 0.02 | 0.02 | 82 | 1010.7 |
| 20260506181003 | 68 | 345 | 5.0 | 16.0 | 0.00 | 0.02 | 0.02 | 83 | 1010.9 |
| 20260506180002 | 67 | 349 | 4.0 | 13.0 | 0.00 | 0.02 | 0.02 | 86 | 1011.0 |
| 20260506175502 | 67 | 352 | 5.0 | 13.0 | 0.01 | 0.02 | 0.02 | 86 | 1010.9 |
| 20260506175003 | 67 | 352 | 5.0 | 12.0 | 0.01 | 0.02 | 0.02 | 86 | 1011.0 |
| 20260506174502 | 66 | 348 | 4.0 | 12.0 | 0.01 | 0.02 | 0.02 | 86 | 1011.1 |
| 20260506174003 | 66 | 353 | 4.0 | 12.0 | 0.01 | 0.02 | 0.02 | 87 | 1011.1 |
| 20260506173502 | 66 | 354 | 4.0 | 18.0 | 0.01 | 0.02 | 0.02 | 88 | 1011.0 |
| 20260506172502 | 66 | 356 | 5.0 | 17.0 | 0.01 | 0.02 | 0.02 | 87 | 1011.1 |
| 20260506172002 | 66 | 1 | 5.0 | 17.0 | 0.01 | 0.02 | 0.02 | 87 | 1011.1 |
| 20260506170502 | 66 | 355 | 5.0 | 16.0 | 0.02 | 0.02 | 0.02 | 87 | 1011.5 |
| 20260506170003 | 66 | 354 | 5.0 | 16.0 | 0.02 | 0.02 | 0.02 | 87 | 1011.6 |
| 20260506165502 | 66 | 356 | 5.0 | 20.0 | 0.01 | 0.01 | 0.01 | 86 | 1011.4 |
| 20260506165002 | 66 | 356 | 4.0 | 20.0 | 0.01 | 0.01 | 0.01 | 85 | 1011.6 |
| 20260506164502 | 66 | 356 | 5.0 | 13.0 | 0.01 | 0.01 | 0.01 | 86 | 1011.7 |
| 20260506164002 | 66 | 358 | 5.0 | 13.0 | 0.01 | 0.01 | 0.01 | 85 | 1011.8 |
| 20260506163503 | 66 | 359 | 5.0 | 13.0 | 0.01 | 0.01 | 0.01 | 85 | 1011.9 |
| 20260506163002 | 65 | 356 | 4.0 | 13.0 | 0.01 | 0.01 | 0.01 | 84 | 1012.0 |
| 20260506162002 | 66 | 355 | 4.0 | 20.0 | 0.01 | 0.01 | 0.01 | 83 | 1012.3 |
| 20260506161502 | 66 | 353 | 5.0 | 20.0 | 0.01 | 0.01 | 0.01 | 83 | 1012.2 |
| 20260506161003 | 66 | 355 | 4.0 | 17.0 | 0.01 | 0.01 | 0.01 | 82 | 1012.4 |
| 20260506160502 | 67 | 357 | 5.0 | 15.0 | 0.00 | 0.00 | 0.00 | 82 | 1012.5 |
| 20260506160002 | 67 | 352 | 5.0 | 15.0 | 0.00 | 0.00 | 0.00 | 79 | 1012.5 |
| 20260506155503 | 68 | 353 | 4.0 | 12.0 | 0.00 | 0.00 | 0.00 | 78 | 1012.4 |
| 20260506155002 | 68 | 355 | 4.0 | 16.0 | 0.00 | 0.00 | 0.00 | 73 | 1012.6 |
| 20260506154502 | 69 | 345 | 5.0 | 19.0 | 0.00 | 0.00 | 0.00 | 73 | 1012.7 |
| 20260506154002 | 69 | 342 | 4.0 | 19.0 | 0.00 | 0.00 | 0.00 | 73 | 1012.6 |
| 20260506153502 | 69 | 348 | 4.0 | 12.0 | 0.00 | 0.00 | 0.00 | 73 | 1012.6 |
| 20260506153002 | 69 | 347 | 6.0 | 14.0 | 0.00 | 0.00 | 0.00 | 73 | 1012.6 |
| 20260506152502 | 69 | 342 | 6.0 | 18.0 | 0.00 | 0.00 | 0.00 | 72 | 1012.6 |
| 20260506150002 | 71 | 337 | 4.0 | 12.0 | 0.00 | 0.00 | 0.00 | 68 | 1012.4 |
| 20260506145504 | 70 | 332 | 4.0 | 10.0 | 0.00 | 0.00 | 0.00 | 66 | 1012.4 |
| 20260506145002 | 70 | 334 | 4.0 | 18.0 | 0.00 | 0.00 | 0.00 | 67 | 1012.5 |
| 20260506144503 | 70 | 339 | 5.0 | 18.0 | 0.00 | 0.00 | 0.00 | 66 | 1012.6 |
| 20260506144002 | 70 | 335 | 5.0 | 14.0 | 0.00 | 0.00 | 0.00 | 66 | 1012.5 |
| 20260506143503 | 70 | 329 | 6.0 | 22.0 | 0.00 | 0.00 | 0.00 | 66 | 1012.4 |
| 20260506143003 | 70 | 334 | 6.0 | 22.0 | 0.00 | 0.00 | 0.00 | 66 | 1012.4 |
| 20260506142002 | 71 | 344 | 7.0 | 20.0 | 0.00 | 0.00 | 0.00 | 65 | 1012.4 |
| 20260506141504 | 71 | 353 | 6.0 | 19.0 | 0.00 | 0.00 | 0.00 | 66 | 1012.3 |
| 20260506141002 | 71 | 345 | 7.0 | 19.0 | 0.00 | 0.00 | 0.00 | 66 | 1012.3 |
| 20260506140502 | 71 | 351 | 7.0 | 19.0 | 0.00 | 0.00 | 0.00 | 66 | 1012.3 |
| 20260506140002 | 71 | 357 | 6.0 | 17.0 | 0.00 | 0.00 | 0.00 | 66 | 1012.2 |
| 20260506135503 | 71 | 355 | 7.0 | 21.0 | 0.00 | 0.00 | 0.00 | 67 | 1012.4 |
| 20260506135003 | 71 | 355 | 7.0 | 21.0 | 0.00 | 0.00 | 0.00 | 66 | 1012.3 |
| 20260506134503 | 71 | 357 | 6.0 | 21.0 | 0.00 | 0.00 | 0.00 | 66 | 1012.3 |
| 20260506134002 | 71 | 356 | 6.0 | 21.0 | 0.00 | 0.00 | 0.00 | 67 | 1012.6 |
| 20260506133502 | 70 | 355 | 6.0 | 18.0 | 0.00 | 0.00 | 0.00 | 67 | 1012.5 |
| 20260506133003 | 70 | 353 | 6.0 | 22.0 | 0.00 | 0.00 | 0.00 | 68 | 1012.7 |
| 20260506132502 | 70 | 356 | 6.0 | 22.0 | 0.00 | 0.00 | 0.00 | 68 | 1012.6 |
| 20260506132003 | 70 | 353 | 5.0 | 13.0 | 0.00 | 0.00 | 0.00 | 68 | 1012.6 |
| 20260506131502 | 70 | 352 | 6.0 | 16.0 | 0.00 | 0.00 | 0.00 | 68 | 1012.5 |
| 20260506130503 | 69 | 355 | 6.0 | 24.0 | 0.00 | 0.00 | 0.00 | 70 | 1012.6 |
| 20260506125502 | 68 | 353 | 6.0 | 20.0 | 0.00 | 0.00 | 0.00 | 70 | 1012.9 |
| 20260506125003 | 69 | 353 | 6.0 | 20.0 | 0.00 | 0.00 | 0.00 | 70 | 1012.8 |
| 20260506124503 | 69 | 356 | 5.0 | 21.0 | 0.00 | 0.00 | 0.00 | 70 | 1012.8 |
| 20260506124003 | 68 | 353 | 5.0 | 21.0 | 0.00 | 0.00 | 0.00 | 71 | 1013.1 |
| 20260506123502 | 68 | 339 | 5.0 | 15.0 | 0.00 | 0.00 | 0.00 | 72 | 1013.0 |
| 20260506123002 | 67 | 343 | 4.0 | 14.0 | 0.00 | 0.00 | 0.00 | 72 | 1013.1 |
| 20260506122503 | 67 | 350 | 4.0 | 12.0 | 0.00 | 0.00 | 0.00 | 73 | 1013.3 |
| 20260506121502 | 67 | 343 | 5.0 | 15.0 | 0.00 | 0.00 | 0.00 | 72 | 1013.0 |
| 20260506121003 | 67 | 346 | 5.0 | 23.0 | 0.00 | 0.00 | 0.00 | 72 | 1013.1 |
| 20260506120002 | 67 | 349 | 5.0 | 20.0 | 0.00 | 0.00 | 0.00 | 72 | 1012.9 |
| 20260506115002 | 66 | 358 | 5.0 | 16.0 | 0.00 | 0.00 | 0.00 | 72 | 1012.7 |
| 20260506114502 | 66 | 352 | 5.0 | 16.0 | 0.00 | 0.00 | 0.00 | 73 | 1012.9 |
| 20260506114003 | 65 | 345 | 5.0 | 13.0 | 0.00 | 0.00 | 0.00 | 73 | 1012.9 |
| 20260506113503 | 65 | 347 | 5.0 | 13.0 | 0.00 | 0.00 | 0.00 | 73 | 1012.8 |
| 20260506113003 | 65 | 357 | 5.0 | 13.0 | 0.00 | 0.00 | 0.00 | 73 | 1012.6 |
| 20260506112003 | 65 | 346 | 5.0 | 13.0 | 0.00 | 0.00 | 0.00 | 73 | 1012.7 |
| 20260506111002 | 65 | 1 | 5.0 | 17.0 | 0.00 | 0.00 | 0.00 | 73 | 1012.6 |
| 20260506110003 | 65 | 356 | 5.0 | 14.0 | 0.00 | 0.00 | 0.00 | 73 | 1012.5 |
| 20260506105502 | 65 | 359 | 5.0 | 14.0 | 0.00 | 0.00 | 0.00 | 73 | 1012.4 |
| 20260506105003 | 64 | 354 | 4.0 | 11.0 | 0.00 | 0.00 | 0.00 | 73 | 1012.5 |
| 20260506104502 | 64 | 352 | 4.0 | 11.0 | 0.00 | 0.00 | 0.00 | 74 | 1012.5 |
| 20260506104003 | 64 | 355 | 4.0 | 12.0 | 0.00 | 0.00 | 0.00 | 73 | 1012.6 |
| 20260506103502 | 64 | 357 | 5.0 | 13.0 | 0.00 | 0.00 | 0.00 | 74 | 1012.6 |
| 20260506103003 | 64 | 356 | 4.0 | 13.0 | 0.00 | 0.00 | 0.00 | 73 | 1012.7 |
| 20260506102502 | 64 | 352 | 4.0 | 11.0 | 0.00 | 0.00 | 0.00 | 73 | 1012.7 |
| 20260506102003 | 64 | 354 | 4.0 | 11.0 | 0.00 | 0.00 | 0.00 | 73 | 1012.9 |
| 20260506101503 | 64 | 354 | 4.0 | 11.0 | 0.00 | 0.00 | 0.00 | 72 | 1012.7 |
| 20260506101002 | 64 | 355 | 3.0 | 11.0 | 0.00 | 0.00 | 0.00 | 72 | 1012.8 |
| 20260506100502 | 64 | 355 | 3.0 | 11.0 | 0.00 | 0.00 | 0.00 | 72 | 1012.6 |
| 20260506095503 | 64 | 349 | 4.0 | 16.0 | 0.00 | 0.00 | 0.00 | 72 | 1012.6 |
| 20260506095003 | 64 | 354 | 5.0 | 16.0 | 0.00 | 0.00 | 0.00 | 72 | 1012.6 |
| 20260506094502 | 64 | 355 | 4.0 | 14.0 | 0.00 | 0.00 | 0.00 | 72 | 1012.4 |
| 20260506093002 | 64 | 1 | 5.0 | 16.0 | 0.00 | 0.00 | 0.00 | 72 | 1012.4 |
| 20260506092502 | 64 | 359 | 4.0 | 10.0 | 0.00 | 0.00 | 0.00 | 73 | 1012.4 |
| 20260506092002 | 64 | 358 | 4.0 | 10.0 | 0.00 | 0.00 | 0.00 | 72 | 1012.6 |
| 20260506091502 | 64 | 355 | 4.0 | 11.0 | 0.00 | 0.00 | 0.00 | 72 | 1012.6 |
| 20260506090502 | 64 | 345 | 5.0 | 13.0 | 0.00 | 0.00 | 0.00 | 71 | 1012.5 |
| 20260506090003 | 65 | 344 | 4.0 | 13.0 | 0.00 | 0.00 | 0.00 | 71 | 1012.6 |
| 20260506085502 | 65 | 351 | 4.0 | 16.0 | 0.00 | 0.00 | 0.00 | 71 | 1012.4 |
| 20260506085002 | 65 | 352 | 5.0 | 16.0 | 0.00 | 0.00 | 0.00 | 71 | 1012.6 |
| 20260506084502 | 65 | 353 | 4.0 | 14.0 | 0.00 | 0.00 | 0.00 | 71 | 1012.7 |
| 20260506084002 | 65 | 353 | 5.0 | 14.0 | 0.00 | 0.00 | 0.00 | 71 | 1012.7 |
| 20260506083502 | 65 | 351 | 5.0 | 14.0 | 0.00 | 0.00 | 0.00 | 71 | 1012.9 |
| 20260506083003 | 65 | 347 | 4.0 | 16.0 | 0.00 | 0.00 | 0.00 | 71 | 1012.9 |
| 20260506082502 | 65 | 350 | 4.0 | 16.0 | 0.00 | 0.00 | 0.00 | 71 | 1012.9 |
| 20260506082003 | 65 | 349 | 3.0 | 14.0 | 0.00 | 0.00 | 0.00 | 71 | 1013.0 |
| 20260506081503 | 65 | 343 | 4.0 | 14.0 | 0.00 | 0.00 | 0.00 | 71 | 1012.9 |
| 20260506081002 | 65 | 330 | 4.0 | 14.0 | 0.00 | 0.00 | 0.00 | 71 | 1012.8 |
| 20260506073503 | 65 | 344 | 4.0 | 12.0 | 0.00 | 0.00 | 0.00 | 72 | 1012.9 |
| 20260506073003 | 65 | 339 | 4.0 | 14.0 | 0.00 | 0.00 | 0.00 | 72 | 1013.0 |
| 20260506072502 | 65 | 349 | 3.0 | 18.0 | 0.00 | 0.00 | 0.00 | 73 | 1013.0 |
| 20260506072003 | 66 | 353 | 3.0 | 18.0 | 0.00 | 0.00 | 0.00 | 73 | 1012.9 |
| 20260506071502 | 66 | 356 | 3.0 | 14.0 | 0.00 | 0.00 | 0.00 | 73 | 1012.9 |
| 20260506071002 | 66 | 353 | 4.0 | 15.0 | 0.00 | 0.00 | 0.00 | 73 | 1012.9 |
| 20260506070503 | 66 | 354 | 4.0 | 15.0 | 0.00 | 0.00 | 0.00 | 73 | 1013.0 |
| 20260506062503 | 66 | 1 | 5.0 | 14.0 | 0.00 | 0.00 | 0.00 | 72 | 1013.2 |
| 20260506062002 | 66 | 1 | 5.0 | 12.0 | 0.00 | 0.00 | 0.00 | 72 | 1013.1 |
| 20260506061502 | 67 | 357 | 5.0 | 17.0 | 0.00 | 0.00 | 0.00 | 72 | 1013.2 |
| 20260506061004 | 67 | 357 | 5.0 | 17.0 | 0.00 | 0.00 | 0.00 | 72 | 1013.2 |
| 20260506060502 | 67 | 358 | 4.0 | 13.0 | 0.00 | 0.00 | 0.00 | 71 | 1013.2 |
| 20260506051003 | 68 | 355 | 5.0 | 18.0 | 0.00 | 0.00 | 0.00 | 69 | 1013.4 |
| 20260506050502 | 68 | 356 | 6.0 | 18.0 | 0.00 | 0.00 | 0.00 | 69 | 1013.6 |
| 20260506045003 | 68 | 3 | 5.0 | 21.0 | 0.00 | 0.00 | 0.00 | 69 | 1013.6 |
| 20260506044502 | 69 | 4 | 6.0 | 21.0 | 0.00 | 0.00 | 0.00 | 69 | 1013.6 |
| 20260506043503 | 69 | 353 | 5.0 | 16.0 | 0.00 | 0.00 | 0.00 | 69 | 1013.7 |
| 20260506043003 | 69 | 359 | 6.0 | 17.0 | 0.00 | 0.00 | 0.00 | 69 | 1013.7 |
| 20260506041502 | 69 | 354 | 5.0 | 18.0 | 0.00 | 0.00 | 0.00 | 69 | 1013.7 |
| 20260506041002 | 69 | 359 | 5.0 | 15.0 | 0.00 | 0.00 | 0.00 | 69 | 1013.5 |
| 20260506040502 | 69 | 359 | 5.0 | 15.0 | 0.00 | 0.00 | 0.00 | 69 | 1013.3 |
| 20260506040003 | 69 | 357 | 6.0 | 18.0 | 0.00 | 0.00 | 0.00 | 69 | 1013.4 |
| 20260506035002 | 69 | 358 | 6.0 | 20.0 | 0.00 | 0.00 | 0.00 | 69 | 1013.4 |
| 20260506034503 | 69 | 358 | 6.0 | 20.0 | 0.00 | 0.00 | 0.00 | 69 | 1013.4 |
| 20260506034002 | 69 | 1 | 6.0 | 17.0 | 0.00 | 0.00 | 0.00 | 69 | 1013.3 |
| 20260506033503 | 69 | 359 | 6.0 | 17.0 | 0.00 | 0.00 | 0.00 | 69 | 1013.3 |
| 20260506033003 | 69 | 3 | 6.0 | 18.0 | 0.00 | 0.00 | 0.00 | 69 | 1013.3 |
| 20260506032502 | 69 | 5 | 5.0 | 18.0 | 0.00 | 0.00 | 0.00 | 69 | 1013.4 |
| 20260506032003 | 69 | 3 | 5.0 | 13.0 | 0.00 | 0.00 | 0.00 | 68 | 1013.4 |
| 20260506031004 | 69 | 359 | 6.0 | 16.0 | 0.00 | 0.00 | 0.00 | 68 | 1013.5 |
| 20260506030502 | 70 | 358 | 5.0 | 14.0 | 0.00 | 0.00 | 0.00 | 68 | 1013.5 |
| 20260506030004 | 70 | 1 | 5.0 | 16.0 | 0.00 | 0.00 | 0.00 | 68 | 1013.5 |
| 20260506025503 | 70 | 359 | 6.0 | 16.0 | 0.00 | 0.00 | 0.00 | 68 | 1013.5 |
| 20260506025002 | 70 | 1 | 7.0 | 14.0 | 0.00 | 0.00 | 0.00 | 68 | 1013.5 |
| 20260506024502 | 70 | 2 | 6.0 | 14.0 | 0.00 | 0.00 | 0.00 | 68 | 1013.5 |
| 20260506024003 | 70 | 2 | 6.0 | 13.0 | 0.00 | 0.00 | 0.00 | 68 | 1013.6 |
| 20260506023502 | 70 | 4 | 6.0 | 15.0 | 0.00 | 0.00 | 0.00 | 68 | 1013.4 |
| 20260506022003 | 70 | 5 | 6.0 | 18.0 | 0.00 | 0.00 | 0.00 | 68 | 1013.6 |
| 20260506021503 | 70 | 6 | 7.0 | 19.0 | 0.00 | 0.00 | 0.00 | 68 | 1013.5 |
| 20260506015503 | 70 | 2 | 6.0 | 23.0 | 0.00 | 0.00 | 0.00 | 67 | 1013.4 |
| 20260506015003 | 70 | 2 | 6.0 | 11.0 | 0.00 | 0.00 | 0.00 | 67 | 1013.4 |
| 20260506014004 | 70 | 358 | 5.0 | 15.0 | 0.00 | 0.00 | 0.00 | 66 | 1013.4 |
| 20260506013503 | 70 | 359 | 6.0 | 21.0 | 0.00 | 0.00 | 0.00 | 65 | 1013.3 |
| 20260506012503 | 70 | 3 | 5.0 | 17.0 | 0.00 | 0.00 | 0.00 | 65 | 1013.1 |
| 20260506012002 | 70 | 4 | 6.0 | 13.0 | 0.00 | 0.00 | 0.00 | 65 | 1013.1 |
| 20260506011503 | 71 | 4 | 6.0 | 13.0 | 0.00 | 0.00 | 0.00 | 64 | 1012.9 |